Jackson, MN

1:40 AM CDT on September 26, 2017 (GMT -0500)
Jackson Municipal

Weather History for KMJQ - June, 2014

Change the Weather History Date:

Sunday, June 1, 2014

  Actual Average Record
Temperature  
Mean Temperature 66 °F -  
Max Temperature 69 °F 70 °F 89 °F (2008)
Min Temperature 62 °F 50 °F 42 °F (2012)
Growing Degree Days 16 (Base 50)    
Moisture  
Dew Point 62 °F    
Average Humidity 87    
Maximum Humidity 94    
Minimum Humidity 73    
Precipitation  
Precipitation 1.19 in - - ()
Sea Level Pressure  
Sea Level Pressure 29.83 in    
Wind  
Wind Speed 8 mph (SSE)    
Max Wind Speed 26 mph    
Max Gust Speed 31 mph    
Visibility 9 miles    
Events Rain , Thunderstorm    
Averages and records for this station are not official NWS values.
T = Trace of Precipitation, MM = Missing Value Source: NWS Daily Summary

Daily Weather History Graph

Daily Weather History Graph

Search for Another Location

Airport or City:

Trip Planner

Search our weather history database for the weather conditions in past years. The results will help you decide how hot, cold, wet, or windy it might be!

Date:

Astronomy

Jun. 01, 2014 Rise Set
Actual Time 5:41 AM CDT 8:54 PM CDT
Civil Twilight 5:06 AM CDT 9:29 PM CDT
Nautical Twilight 4:21 AM CDT 10:15 PM CDT
Astronomical Twilight 3:26 AM CDT 11:10 PM CDT
Moon 9:17 AM CDT (6/1) 11:45 PM CDT (6/1)
Length of Visible Light 16h 23m
Length of Day
15h 13m
Waxing Crescent, 14% of the Moon is Illuminated
Jun 1
Waxing Crescent
Jun 5
First Quarter
Jun 12
Full
Jun 19
Last Quarter
Jun 27
New

Hourly Weather History & Observations

Time (CDT) Temp. Dew Point Humidity Pressure Visibility Wind Dir Wind Speed Gust Speed Precip Events Conditions
12:12 AM 68.0 °F 64.4 °F 88% 29.92 in 10.0 mi South 4.6 mph - N/A   Mostly Cloudy
12:32 AM 69.8 °F 62.6 °F 78% 29.92 in 10.0 mi South 4.6 mph - N/A   Mostly Cloudy
12:52 AM 69.8 °F 64.4 °F 83% 29.90 in 10.0 mi SE 4.6 mph - N/A Rain Rain
1:12 AM 69.8 °F 62.6 °F 78% 29.89 in 10.0 mi SSE 6.9 mph - N/A   Mostly Cloudy
1:32 AM 69.8 °F 62.6 °F 78% 29.89 in 10.0 mi SSE 6.9 mph - N/A   Scattered Clouds
1:52 AM 68.0 °F 62.6 °F 83% 29.88 in 10.0 mi SE 9.2 mph - N/A Thunderstorm Scattered Clouds
2:12 AM 69.8 °F 62.6 °F 78% 29.88 in 10.0 mi SSE 10.4 mph - N/A   Scattered Clouds
2:32 AM 69.8 °F 62.6 °F 78% 29.87 in 10.0 mi SSE 10.4 mph - N/A   Scattered Clouds
2:52 AM 69.8 °F 62.6 °F 78% 29.87 in 10.0 mi SSE 10.4 mph - N/A   Clear
3:12 AM 69.8 °F 62.6 °F 78% 29.86 in 10.0 mi South 11.5 mph - N/A   Mostly Cloudy
3:32 AM 69.8 °F 62.6 °F 78% 29.86 in 10.0 mi South 11.5 mph 17.3 mph N/A   Scattered Clouds
3:52 AM 69.8 °F 62.6 °F 78% 29.86 in 10.0 mi South 9.2 mph - N/A   Clear
4:12 AM 69.8 °F 62.6 °F 78% 29.86 in 10.0 mi South 9.2 mph - N/A   Mostly Cloudy
4:32 AM 69.8 °F 62.6 °F 78% 29.86 in 10.0 mi South 9.2 mph - N/A   Overcast
4:52 AM 69.8 °F 62.6 °F 78% 29.87 in 10.0 mi SSW 6.9 mph - N/A   Overcast
5:12 AM 69.8 °F 64.4 °F 83% 29.90 in 10.0 mi WNW 8.1 mph - N/A   Overcast
5:32 AM 68.0 °F 59.0 °F 73% 29.91 in 10.0 mi NW 26.5 mph 31.1 mph N/A   Overcast
5:52 AM 64.4 °F 59.0 °F 83% 29.91 in 10.0 mi NW 13.8 mph 18.4 mph N/A Thunderstorm Overcast
6:12 AM 62.6 °F 59.0 °F 88% 29.91 in 3.0 mi WSW 4.6 mph - 0.19 in Rain , Thunderstorm Heavy Thunderstorms and Rain
6:32 AM 62.6 °F 59.0 °F 88% 29.90 in 10.0 mi SSW 4.6 mph - 0.29 in Rain , Thunderstorm Light Thunderstorms and Rain
6:52 AM 62.6 °F 60.8 °F 94% 29.90 in 10.0 mi Calm Calm - 0.29 in Rain , Thunderstorm Light Thunderstorms and Rain
7:12 AM 64.4 °F 60.8 °F 88% 29.90 in 10.0 mi Calm Calm - N/A Thunderstorm Overcast
7:32 AM 64.4 °F 60.8 °F 88% 29.88 in 7.0 mi ESE 8.1 mph - 0.01 in Rain Light Rain
7:52 AM 64.4 °F 60.8 °F 88% 29.88 in 10.0 mi SE 8.1 mph - 0.02 in Rain Light Rain
8:12 AM 64.4 °F 60.8 °F 88% 29.88 in 10.0 mi SE 5.8 mph - N/A Thunderstorm Scattered Clouds
8:32 AM 64.4 °F 60.8 °F 88% 29.89 in 10.0 mi SSE 6.9 mph - N/A Rain Light Rain
9:12 AM 64.4 °F 60.8 °F 88% 29.88 in 10.0 mi SE 6.9 mph - N/A Thunderstorm Overcast
9:32 AM 64.4 °F 60.8 °F 88% 29.90 in 4.0 mi SSE 11.5 mph - 0.07 in Rain , Thunderstorm Heavy Thunderstorms and Rain
9:52 AM 64.4 °F 62.6 °F 94% 29.88 in 3.0 mi South 11.5 mph - 0.28 in Rain , Thunderstorm Heavy Thunderstorms and Rain
10:12 AM 66.2 °F 62.6 °F 88% 29.87 in 7.0 mi SSE 11.5 mph - 0.02 in Rain , Thunderstorm Thunderstorms and Rain
10:32 AM 64.4 °F 62.6 °F 94% 29.86 in 7.0 mi SE 11.5 mph - 0.07 in Rain , Thunderstorm Heavy Thunderstorms and Rain
10:52 AM 64.4 °F 62.6 °F 94% 29.87 in 2.5 mi SE 9.2 mph - 0.23 in Rain , Thunderstorm Light Thunderstorms and Rain
11:12 AM 66.2 °F 62.6 °F 88% 29.87 in 7.0 mi NNE 5.8 mph - N/A Rain Light Rain
11:32 AM 66.2 °F 64.4 °F 94% 29.87 in 7.0 mi SE 8.1 mph - N/A   Overcast
11:52 AM 68.0 °F 64.4 °F 88% 29.87 in 7.0 mi ESE 12.7 mph - N/A Thunderstorm Overcast
12:12 PM 68.0 °F 64.4 °F 88% 29.86 in 7.0 mi ESE 13.8 mph - N/A   Overcast
12:32 PM 68.0 °F 64.4 °F 88% 29.84 in 7.0 mi ESE 10.4 mph 16.1 mph N/A Thunderstorm Thunderstorm
12:52 PM 68.0 °F 64.4 °F 88% 29.84 in 10.0 mi SSE 10.4 mph - N/A   Mostly Cloudy
1:12 PM 68.0 °F 64.4 °F 88% 29.83 in 10.0 mi SSE 8.1 mph - N/A   Mostly Cloudy
1:31 PM 68.0 °F 64.4 °F 88% 29.80 in 10.0 mi SSE 5.8 mph - N/A   Mostly Cloudy
1:52 PM 68.0 °F 64.4 °F 88% 29.79 in 10.0 mi ESE 6.9 mph - N/A Rain , Thunderstorm Light Thunderstorms and Rain
2:12 PM 69.8 °F 64.4 °F 83% 29.79 in 10.0 mi ESE 8.1 mph - N/A Rain Light Rain
2:32 PM 69.8 °F 64.4 °F 83% 29.78 in 10.0 mi ESE 10.4 mph - N/A   Scattered Clouds
2:52 PM 69.8 °F 62.6 °F 78% 29.79 in 10.0 mi SE 10.4 mph - N/A Thunderstorm Mostly Cloudy
3:12 PM 69.8 °F 62.6 °F 78% 29.77 in 10.0 mi SE 13.8 mph - N/A Thunderstorm Mostly Cloudy
3:32 PM 68.0 °F 62.6 °F 83% 29.76 in 10.0 mi SE 15.0 mph - N/A   Scattered Clouds
4:12 PM 68.0 °F 62.6 °F 83% 29.73 in 10.0 mi SE 18.4 mph - 0.01 in Rain , Thunderstorm Rain
4:32 PM 66.2 °F 62.6 °F 88% 29.76 in 10.0 mi South 10.4 mph - 0.01 in Rain Light Rain
4:52 PM 66.2 °F 62.6 °F 88% 29.77 in 10.0 mi South 11.5 mph - 0.01 in Thunderstorm Mostly Cloudy
5:12 PM 66.2 °F 62.6 °F 88% 29.85 in 10.0 mi SW 20.7 mph 26.5 mph N/A Rain , Thunderstorm Light Thunderstorms and Rain
5:32 PM 64.4 °F 60.8 °F 88% 29.82 in 5.0 mi South 10.4 mph - 0.10 in Rain , Thunderstorm Thunderstorms and Rain
5:52 PM 64.4 °F 60.8 °F 88% 29.79 in 7.0 mi South 8.1 mph - 0.14 in Rain Rain
6:12 PM 64.4 °F 60.8 °F 88% 29.79 in 5.0 mi SE 13.8 mph - 0.08 in Rain Heavy Rain
6:32 PM 64.4 °F 60.8 °F 88% 29.76 in 5.0 mi SE 11.5 mph - 0.14 in Rain Rain
6:52 PM 62.6 °F 60.8 °F 94% 29.73 in 7.0 mi SE 13.8 mph 17.3 mph 0.19 in Rain Rain
7:12 PM 62.6 °F 60.8 °F 94% 29.72 in 10.0 mi SE 16.1 mph - 0.02 in Rain Light Rain
7:32 PM 62.6 °F 60.8 °F 94% 29.74 in 10.0 mi SE 8.1 mph - 0.03 in   Mostly Cloudy
7:52 PM 62.6 °F 60.8 °F 94% 29.76 in 10.0 mi SE 9.2 mph - 0.03 in   Overcast
8:12 PM 62.6 °F 60.8 °F 94% 29.78 in 10.0 mi South 6.9 mph - N/A   Overcast
8:32 PM 62.6 °F 60.8 °F 94% 29.79 in 10.0 mi SW 4.6 mph - N/A   Overcast
8:52 PM 62.6 °F 60.8 °F 94% 29.77 in 10.0 mi SSW 4.6 mph - N/A   Overcast
9:12 PM 62.6 °F 60.8 °F 94% 29.76 in 10.0 mi SSE 3.5 mph - N/A   Overcast
9:32 PM 62.6 °F 60.8 °F 94% 29.75 in 10.0 mi SSE 4.6 mph - N/A   Overcast
10:12 PM 62.6 °F 60.8 °F 94% 29.74 in 10.0 mi South 3.5 mph - N/A   Overcast
10:32 PM 62.6 °F 60.8 °F 94% 29.74 in 10.0 mi SSE 5.8 mph - N/A   Overcast
10:52 PM 62.6 °F 60.8 °F 94% 29.75 in 10.0 mi SSE 5.8 mph - N/A   Overcast
11:12 PM 62.6 °F 60.8 °F 94% 29.76 in 10.0 mi South 9.2 mph - N/A   Overcast
11:32 PM 62.6 °F 60.8 °F 94% 29.77 in 10.0 mi SSW 10.4 mph 16.1 mph N/A   Overcast
11:52 PM 62.6 °F 60.8 °F 94% 29.76 in 10.0 mi SSW 9.2 mph - N/A   Overcast